When you browse on this site, cookies collect data to enhance your experience and personalize the content and advertising you see.
Visit our Privacy Policy to learn more. By continuing to use the site, you agree to this use of cookies and data.
  • In Latvia
  • List of Countries
  • For 7 days
  • Water Temperature
  • Satellite Maps
  • Weather Map
  • Weather Widgets
  • user-avatar
    Login

    Hourly Weather Nottingham

    Today, 18 December, Tuesday

    Time Temperature Precipitation Wind Pressure Humidity
    00:00 +7°C° 0 mm 6 mps 754 mmHg 92%
    01:00 +7°C° 0 mm 6 mps 753 mmHg 91%
    02:00 +8°C° 0 mm 7 mps 753 mmHg 90%
    03:00 +8°C° 0 mm 7 mps 753 mmHg 89%
    04:00 +8°C° 0 mm 7 mps 752 mmHg 87%
    05:00 +7°C° 0 mm 8 mps 751 mmHg 86%
    06:00 +8°C° 0 mm 7 mps 750 mmHg 87%
    07:00 +7°C° 0.1 mm 8 mps 750 mmHg 85%
    08:00 +7°C° 0.1 mm 9 mps 749 mmHg 84%
    09:00 +7°C° 0.1 mm 10 mps 749 mmHg 83%
    10:00 +7°C° 0.4 mm 10 mps 748 mmHg 82%
    11:00 +7°C° 0.4 mm 10 mps 748 mmHg 80%
    12:00 +7°C° 0.4 mm 10 mps 747 mmHg 79%
    13:00 +7°C° 0.6 mm 10 mps 747 mmHg 79%
    14:00 +7°C° 0.6 mm 9 mps 746 mmHg 80%
    15:00 +6°C° 0.6 mm 9 mps 745 mmHg 81%
    16:00 +6°C° 1.1 mm 9 mps 745 mmHg 83%
    17:00 +6°C° 1.1 mm 9 mps 745 mmHg 85%
    18:00 +6°C° 1.1 mm 8 mps 744 mmHg 87%
    19:00 +6°C° 0.7 mm 7 mps 744 mmHg 88%
    20:00 +7°C° 0.7 mm 5 mps 744 mmHg 88%
    21:00 +7°C° 0.7 mm 4 mps 744 mmHg 89%
    22:00 +6°C° 0 mm 4 mps 745 mmHg 90%
    23:00 +6°C° 0 mm 4 mps 745 mmHg 91%

    Tomorrow, 19 December, Wednesday

    Time Temperature Precipitation Wind Pressure Humidity
    00:00 +6°C° 0 mm 4 mps 745 mmHg 91%
    01:00 +5°C° 0 mm 4 mps 745 mmHg 92%
    02:00 +5°C° 0 mm 4 mps 745 mmHg 92%
    03:00 +5°C° 0 mm 4 mps 745 mmHg 92%
    04:00 +5°C° 0.1 mm 4 mps 746 mmHg 93%
    05:00 +5°C° 0.1 mm 4 mps 746 mmHg 93%
    06:00 +4°C° 0.1 mm 3 mps 746 mmHg 94%
    07:00 +4°C° 0 mm 3 mps 746 mmHg 94%
    08:00 +4°C° 0 mm 3 mps 746 mmHg 94%
    09:00 +4°C° 0 mm 3 mps 747 mmHg 94%
    10:00 +5°C° 0 mm 4 mps 747 mmHg 89%
    11:00 +6°C° 0 mm 4 mps 747 mmHg 85%
    12:00 +7°C° 0 mm 5 mps 747 mmHg 80%
    13:00 +7°C° 0 mm 5 mps 746 mmHg 81%
    14:00 +6°C° 0 mm 5 mps 746 mmHg 81%
    15:00 +6°C° 0 mm 4 mps 746 mmHg 81%
    16:00 +6°C° 0 mm 5 mps 746 mmHg 82%
    17:00 +5°C° 0 mm 5 mps 745 mmHg 83%
    18:00 +4°C° 0 mm 6 mps 745 mmHg 85%
    19:00 +4°C° 0.1 mm 6 mps 745 mmHg 85%
    20:00 +4°C° 0.1 mm 6 mps 745 mmHg 86%
    21:00 +4°C° 0.1 mm 6 mps 745 mmHg 87%
    22:00 +5°C° 0 mm 5 mps 745 mmHg 87%
    23:00 +5°C° 0 mm 5 mps 745 mmHg 87%

    Day after tomorrow, 20 December, Thursday

    Time Temperature Precipitation Wind Pressure Humidity
    00:00 +5°C° 0 mm 5 mps 745 mmHg 88%
    01:00 +3°C° 0 mm 5 mps 745 mmHg 88%
    02:00 +3°C° 0 mm 5 mps 745 mmHg 88%
    03:00 +3°C° 0 mm 5 mps 745 mmHg 88%
    04:00 +3°C° 0 mm 5 mps 746 mmHg 88%
    05:00 +5°C° 0 mm 5 mps 746 mmHg 88%
    06:00 +5°C° 0 mm 5 mps 746 mmHg 88%
    07:00 +5°C° 0 mm 5 mps 747 mmHg 87%
    08:00 +5°C° 0 mm 5 mps 747 mmHg 87%
    09:00 +5°C° 0 mm 5 mps 748 mmHg 87%
    10:00 +5°C° 0 mm 6 mps 748 mmHg 83%
    11:00 +5°C° 0 mm 6 mps 748 mmHg 80%
    12:00 +7°C° 0 mm 6 mps 749 mmHg 76%
    13:00 +7°C° 0.1 mm 6 mps 749 mmHg 76%
    14:00 +7°C° 0.1 mm 5 mps 749 mmHg 76%
    15:00 +7°C° 0.1 mm 5 mps 749 mmHg 76%
    16:00 +7°C° 0.1 mm 5 mps 749 mmHg 78%
    17:00 +6°C° 0.1 mm 5 mps 749 mmHg 80%
    18:00 +6°C° 0.1 mm 5 mps 749 mmHg 82%
    19:00 +6°C° 0 mm 4 mps 749 mmHg 84%
    20:00 +5°C° 0 mm 4 mps 749 mmHg 86%
    21:00 +5°C° 0 mm 4 mps 749 mmHg 88%
    22:00 +5°C° 0.5 mm 4 mps 747 mmHg 90%
    23:00 +5°C° 0.5 mm 4 mps 746 mmHg 91%

    21 December, Friday

    Time Temperature Precipitation Wind Pressure Humidity
    00:00 +6°C° 0.5 mm 4 mps 745 mmHg 93%
    01:00 +7°C° 1.1 mm 5 mps 744 mmHg 93%
    02:00 +8°C° 1.1 mm 6 mps 742 mmHg 94%
    03:00 +9°C° 1.1 mm 6 mps 741 mmHg 94%
    04:00 +9°C° 0.2 mm 7 mps 740 mmHg 91%
    05:00 +10°C° 0.2 mm 7 mps 740 mmHg 88%
    06:00 +11°C° 0.2 mm 8 mps 740 mmHg 85%
    07:00 +10°C° 0.1 mm 8 mps 740 mmHg 82%
    08:00 +9°C° 0.1 mm 8 mps 741 mmHg 79%
    09:00 +7°C° 0.1 mm 8 mps 742 mmHg 75%
    10:00 +7°C° 0 mm 9 mps 742 mmHg 73%
    11:00 +7°C° 0 mm 9 mps 743 mmHg 70%
    12:00 +7°C° 0 mm 10 mps 744 mmHg 68%
    13:00 +7°C° 0 mm 9 mps 744 mmHg 68%
    14:00 +7°C° 0 mm 9 mps 745 mmHg 68%
    15:00 +7°C° 0 mm 9 mps 745 mmHg 68%
    16:00 +6°C° 0 mm 8 mps 746 mmHg 70%
    17:00 +6°C° 0 mm 8 mps 746 mmHg 72%
    18:00 +6°C° 0 mm 7 mps 747 mmHg 74%
    19:00 +6°C° 0 mm 7 mps 747 mmHg 77%
    20:00 +6°C° 0 mm 7 mps 747 mmHg 80%
    21:00 +7°C° 0 mm 6 mps 748 mmHg 83%
    22:00 +7°C° 0.4 mm 6 mps 747 mmHg 84%
    23:00 +6°C° 0.4 mm 7 mps 747 mmHg 86%

    22 December, Saturday

    Time Temperature Precipitation Wind Pressure Humidity
    00:00 +6°C° 0.4 mm 7 mps 746 mmHg 87%
    01:00 +8°C° 0.1 mm 7 mps 746 mmHg 86%
    02:00 +8°C° 0.1 mm 7 mps 745 mmHg 85%
    03:00 +8°C° 0.1 mm 7 mps 745 mmHg 83%
    04:00 +8°C° 0 mm 7 mps 745 mmHg 82%
    05:00 +7°C° 0 mm 8 mps 745 mmHg 80%
    06:00 +7°C° 0 mm 8 mps 746 mmHg 78%
    07:00 +7°C° 0 mm 8 mps 747 mmHg 78%
    08:00 +6°C° 0 mm 7 mps 748 mmHg 79%
    09:00 +6°C° 0 mm 7 mps 749 mmHg 79%
    10:00 +6°C° 0 mm 7 mps 750 mmHg 77%
    11:00 +6°C° 0 mm 7 mps 751 mmHg 76%
    12:00 +8°C° 0 mm 7 mps 752 mmHg 75%
    13:00 +8°C° 0 mm 6 mps 752 mmHg 74%
    14:00 +7°C° 0 mm 6 mps 752 mmHg 74%
    15:00 +7°C° 0 mm 5 mps 753 mmHg 73%
    16:00 +6°C° 0 mm 5 mps 753 mmHg 75%
    17:00 +6°C° 0 mm 5 mps 754 mmHg 77%
    18:00 +5°C° 0 mm 5 mps 754 mmHg 78%
    19:00 +5°C° 0 mm 5 mps 755 mmHg 79%
    20:00 +5°C° 0 mm 5 mps 756 mmHg 80%
    21:00 +5°C° 0 mm 4 mps 756 mmHg 81%
    22:00 +5°C° 0 mm 4 mps 756 mmHg 82%
    23:00 +4°C° 0 mm 4 mps 757 mmHg 84%

    23 December, Sunday

    Time Temperature Precipitation Wind Pressure Humidity
    00:00 +4°C° 0 mm 4 mps 757 mmHg 85%
    01:00 +4°C° 0 mm 4 mps 757 mmHg 86%
    02:00 +4°C° 0 mm 4 mps 757 mmHg 87%
    03:00 +4°C° 0 mm 4 mps 758 mmHg 88%
    04:00 +4°C° 0 mm 3 mps 758 mmHg 89%
    05:00 +4°C° 0 mm 3 mps 758 mmHg 91%
    06:00 +4°C° 0 mm 3 mps 758 mmHg 92%
    07:00 +4°C° 0 mm 3 mps 758 mmHg 93%
    08:00 +4°C° 0 mm 3 mps 758 mmHg 94%
    09:00 +4°C° 0 mm 3 mps 758 mmHg 94%
    10:00 +5°C° 0 mm 3 mps 758 mmHg 93%
    11:00 +7°C° 0 mm 3 mps 758 mmHg 92%
    12:00 +7°C° 0 mm 4 mps 757 mmHg 91%
    13:00 +7°C° 0.3 mm 4 mps 757 mmHg 92%
    14:00 +7°C° 0.3 mm 4 mps 756 mmHg 93%
    15:00 +7°C° 0.3 mm 4 mps 755 mmHg 94%
    16:00 +7°C° 1 mm 5 mps 755 mmHg 94%
    17:00 +7°C° 1 mm 5 mps 754 mmHg 94%
    18:00 +7°C° 1 mm 5 mps 753 mmHg 95%
    19:00 +8°C° 1.7 mm 5 mps 753 mmHg 94%
    20:00 +9°C° 1.7 mm 5 mps 753 mmHg 94%
    21:00 +10°C° 1.7 mm 6 mps 753 mmHg 94%
    22:00 +10°C° 0.1 mm 6 mps 753 mmHg 93%
    23:00 +10°C° 0.1 mm 6 mps 753 mmHg 92%
    Show more